Tracking 35331 objects as of 14-Sep-2026
HD Live streaming from Space Station
objects crossing your sky now

STARLINK-4016

Track STARLINK-4016 now!
10-day predictions
STARLINK-4016 is classified as:


NORAD ID: 52603
Int'l Code: 2022-052F
Launch date: May 14, 2022
Source: United States (US)
Launch site: AIR FORCE EASTERN TEST RANGE (AFETR)
Your satellite tracking list
Your tracking list is empty




NASA's NSSDC Master Catalog

Two Line Element Set (TLE):
1 52603U 22052F   26256.96734688 -.00000818  00000-0 -14592-4 0  9993
2 52603  53.1583 139.2527 0000820 100.1876 259.9218 15.31697879240283
Source of the keplerian elements: AFSPC